QPF
0.00 0.00 0.01 0.01 0.00 0.00 0.00 0.00 0.00 0.00 0.00 0.00 0.01 0.01 0.01 0.01 0.03 0.07 0.11 0.11 0.09 0.07 0.07 0.08 0.07 0.06 0.06 0.06 0.05 0.05 0.03 0.05 0.05 0.06 0.07 0.08 0.08 0.06 0.04 0.04 0.03 0.04 0.05
0.00 0.00 0.01 0.01 0.00 0.00 0.00 0.00 0.00 0.00 0.00 0.00 0.01 0.01 0.02 0.02 0.02 0.04 0.08 0.10 0.06 0.05 0.04 0.05 0.04 0.03 0.02 0.04 0.04 0.04 0.03 0.04 0.05 0.05 0.06 0.07 0.09 0.07 0.04 0.03 0.02 0.03 0.04
0.00 0.00 0.00 0.00 0.00 0.00 0.00 0.00 0.00 0.00 0.00 0.00 0.01 0.01 0.01 0.01 0.02 0.03 0.05 0.05 0.04 0.04 0.04 0.05 0.04 0.03 0.02 0.02 0.04 0.06 0.05 0.05 0.05 0.06 0.07 0.06 0.06 0.05 0.03 0.02 0.02 0.03 0.04
0.01 0.01 0.00 0.00 0.00 0.00 0.00 0.00 0.00 0.00 0.00 0.01 0.01 0.01 0.02 0.03 0.03 0.04 0.04 0.04 0.03 0.03 0.04 0.06 0.06 0.05 0.05 0.04 0.04 0.06 0.07 0.05 0.06 0.08 0.08 0.07 0.06 0.04 0.04 0.03 0.02 0.02 0.02
0.01 0.00 0.00 0.00 0.00 0.01 0.00 0.00 0.00 0.00 0.00 0.01 0.02 0.03 0.04 0.05 0.06 0.06 0.05 0.05 0.04 0.04 0.05 0.05 0.06 0.04 0.04 0.05 0.04 0.05 0.06 0.08 0.10 0.10 0.11 0.11 0.08 0.07 0.05 0.04 0.03 0.02 0.02
0.01 0.00 0.00 0.01 0.01 0.01 0.01 0.00 0.00 0.00 0.01 0.02 0.04 0.06 0.06 0.07 0.07 0.05 0.04 0.03 0.02 0.03 0.03 0.04 0.06 0.06 0.06 0.07 0.08 0.07 0.06 0.07 0.07 0.06 0.07 0.09 0.11 0.09 0.06 0.03 0.02 0.03 0.02
0.01 0.00 0.00 0.00 0.01 0.02 0.01 0.01 0.02 0.02 0.02 0.02 0.02 0.04 0.05 0.05 0.04 0.03 0.03 0.02 0.02 0.02 0.02 0.02 0.04 0.06 0.06 0.06 0.09 0.11 0.09 0.07 0.06 0.05 0.05 0.08 0.08 0.08 0.06 0.04 0.03 0.03 0.03
0.01 0.01 0.01 0.01 0.02 0.02 0.01 0.01 0.01 0.02 0.01 0.01 0.01 0.01 0.03 0.04 0.03 0.01 0.01 0.02 0.02 0.01 0.01 0.01 0.02 0.05 0.08 0.10 0.10 0.11 0.12 0.13 0.12 0.09 0.07 0.08 0.07 0.07 0.07 0.06 0.06 0.04 0.04
0.00 0.01 0.01 0.01 0.01 0.01 0.01 0.01 0.00 0.01 0.01 0.01 0.02 0.02 0.02 0.02 0.02 0.02 0.02 0.01 0.02 0.01 0.01 0.02 0.02 0.03 0.06 0.10 0.13 0.12 0.13 0.15 0.16 0.16 0.14 0.11 0.08 0.07 0.06 0.05 0.05 0.06 0.05
0.00 0.00 0.01 0.01 0.01 0.01 0.01 0.01 0.01 0.01 0.02 0.03 0.10 0.07 0.05 0.04 0.03 0.03 0.03 0.02 0.02 0.02 0.02 0.03 0.03 0.03 0.04 0.06 0.10 0.11 0.11 0.12 0.15 0.18 0.17 0.13 0.10 0.07 0.06 0.06 0.05 0.06 0.06
0.00 0.00 0.01 0.01 0.01 0.02 0.02 0.02 0.01 0.02 0.02 0.03 0.09 0.07 0.06 0.04 0.04 0.03 0.03 0.03 0.03 0.04 0.02 0.02 0.03 0.03 0.05 0.05 0.06 0.06 0.10 0.09 0.08 0.10 0.10 0.09 0.09 0.07 0.06 0.06 0.06 0.06 0.05
0.01 0.01 0.01 0.01 0.01 0.01 0.01 0.01 0.02 0.01 0.02 0.02 0.02 0.02 0.04 0.04 0.03 0.03 0.04 0.03 0.03 0.03 0.02 0.02 0.02 0.02 0.04 0.07 0.07 0.08 0.09 0.08 0.05 0.05 0.06 0.07 0.08 0.07 0.07 0.07 0.06 0.04 0.04
0.01 0.01 0.01 0.01 0.01 0.00 0.01 0.01 0.01 0.02 0.03 0.03 0.02 0.02 0.03 0.03 0.02 0.03 0.04 0.02 0.02 0.03 0.02 0.03 0.03 0.04 0.05 0.06 0.05 0.06 0.08 0.06 0.04 0.04 0.04 0.05 0.07 0.07 0.08 0.07 0.06 0.05 0.05
0.01 0.01 0.02 0.02 0.01 0.01 0.01 0.01 0.01 0.03 0.03 0.03 0.02 0.02 0.02 0.02 0.02 0.03 0.02 0.02 0.01 0.02 0.03 0.05 0.05 0.05 0.05 0.04 0.04 0.04 0.03 0.03 0.03 0.03 0.03 0.03 0.05 0.05 0.06 0.05 0.05 0.04 0.04
0.01 0.01 0.01 0.02 0.02 0.01 0.02 0.02 0.01 0.02 0.03 0.03 0.03 0.03 0.03 0.03 0.06 0.07 0.04 0.04 0.05 0.05 0.05 0.06 0.06 0.06 0.04 0.04 0.03 0.03 0.02 0.02 0.02 0.03 0.03 0.03 0.04 0.05 0.04 0.03 0.03 0.03 0.03
0.01 0.01 0.01 0.01 0.02 0.02 0.02 0.01 0.01 0.02 0.02 0.01 0.02 0.03 0.03 0.04 0.06 0.06 0.05 0.05 0.03 0.03 0.04 0.04 0.04 0.04 0.03 0.03 0.04 0.04 0.03 0.02 0.02 0.02 0.02 0.03 0.04 0.04 0.04 0.03 0.03 0.03 0.03
0.02 0.01 0.01 0.02 0.02 0.02 0.01 0.01 0.01 0.01 0.01 0.02 0.03 0.03 0.03 0.03 0.03 0.04 0.04 0.03 0.03 0.03 0.03 0.03 0.03 0.02 0.02 0.03 0.03 0.03 0.03 0.02 0.02 0.02 0.02 0.03 0.03 0.03 0.03 0.03 0.02 0.02 0.02
0.01 0.01 0.01 0.02 0.02 0.02 0.01 0.01 0.01 0.01 0.01 0.02 0.03 0.04 0.03 0.03 0.03 0.04 0.03 0.03 0.02 0.02 0.02 0.02 0.02 0.03 0.03 0.03 0.03 0.03 0.03 0.03 0.02 0.02 0.03 0.04 0.03 0.03 0.04 0.03 0.02 0.01 0.02
0.04 0.03 0.02 0.02 0.02 0.01 0.01 0.01 0.01 0.01 0.02 0.03 0.04 0.04 0.04 0.03 0.04 0.04 0.03 0.03 0.03 0.03 0.03 0.03 0.02 0.03 0.03 0.04 0.04 0.04 0.05 0.05 0.05 0.03 0.03 0.03 0.03 0.04 0.04 0.03 0.02 0.02 0.02
0.05 0.04 0.03 0.02 0.02 0.01 0.02 0.02 0.03 0.04 0.06 0.06 0.06 0.06 0.04 0.04 0.04 0.03 0.03 0.04 0.04 0.04 0.04 0.04 0.03 0.03 0.03 0.04 0.04 0.05 0.04 0.05 0.06 0.05 0.03 0.03 0.03 0.03 0.04 0.03 0.03 0.02 0.02
0.03 0.02 0.02 0.02 0.01 0.01 0.02 0.03 0.03 0.03 0.04 0.05 0.07 0.06 0.05 0.04 0.04 0.04 0.04 0.03 0.04 0.03 0.03 0.03 0.03 0.03 0.03 0.04 0.04 0.04 0.02 0.02 0.03 0.03 0.02 0.02 0.03 0.04 0.03 0.03 0.02 0.02 0.03
0.03 0.03 0.02 0.02 0.02 0.03 0.03 0.03 0.02 0.02 0.02 0.02 0.03 0.03 0.03 0.03 0.03 0.04 0.04 0.04 0.03 0.04 0.04 0.03 0.02 0.02 0.02 0.03 0.03 0.03 0.03 0.02 0.02 0.02 0.01 0.01 0.02 0.03 0.03 0.02 0.02 0.03 0.02
0.02 0.03 0.02 0.02 0.03 0.04 0.03 0.02 0.02 0.03 0.02 0.02 0.02 0.02 0.02 0.03 0.03 0.03 0.04 0.04 0.04 0.04 0.04 0.03 0.03 0.03 0.03 0.03 0.03 0.03 0.03 0.03 0.02 0.01 0.02 0.02 0.03 0.04 0.04 0.03 0.03 0.03 0.02
0.02 0.02 0.02 0.02 0.02 0.02 0.02 0.02 0.02 0.02 0.02 0.01 0.02 0.02 0.02 0.03 0.03 0.03 0.04 0.04 0.05 0.04 0.04 0.03 0.03 0.03 0.02 0.02 0.02 0.02 0.02 0.02 0.02 0.02 0.02 0.02 0.03 0.03 0.02 0.02 0.03 0.03 0.03
0.03 0.03 0.03 0.04 0.05 0.04 0.03 0.02 0.02 0.03 0.03 0.03 0.03 0.02 0.02 0.03 0.04 0.04 0.04 0.05 0.05 0.05 0.05 0.04 0.03 0.03 0.02 0.02 0.02 0.02 0.02 0.03 0.02 0.02 0.02 0.02 0.02 0.01 0.01 0.02 0.03 0.04 0.04
0.04 0.04 0.04 0.06 0.07 0.08 0.07 0.06 0.05 0.05 0.05 0.05 0.05 0.04 0.04 0.05 0.06 0.06 0.06 0.07 0.07 0.08 0.07 0.06 0.06 0.05 0.04 0.04 0.04 0.04 0.04 0.05 0.05 0.03 0.03 0.03 0.03 0.02 0.03 0.04 0.04 0.04 0.03
MSLP
1007.64 1007.86 1008.07 1008.27 1008.46 1008.68 1008.95 1009.31 1009.75 1010.26 1010.81 1011.34 1011.81 1012.18 1012.44 1012.59 1012.67 1012.72 1012.79 1012.93 1013.15 1013.47 1013.86 1014.30 1014.73 1015.14 1015.49 1015.77 1016.00 1016.19 1016.36 1016.53 1016.72 1016.91 1017.11 1017.28 1017.43 1017.53 1017.58 1017.59 1017.58 1017.56 1017.56
1006.91 1007.11 1007.30 1007.48 1007.66 1007.87 1008.15 1008.53 1009.01 1009.57 1010.18 1010.78 1011.31 1011.72 1012.00 1012.16 1012.22 1012.24 1012.29 1012.41 1012.64 1012.98 1013.40 1013.88 1014.36 1014.80 1015.18 1015.48 1015.71 1015.89 1016.06 1016.24 1016.45 1016.68 1016.93 1017.18 1017.39 1017.56 1017.67 1017.72 1017.73 1017.72 1017.71
1006.14 1006.28 1006.44 1006.59 1006.76 1006.97 1007.25 1007.65 1008.17 1008.78 1009.46 1010.12 1010.72 1011.19 1011.51 1011.69 1011.76 1011.78 1011.82 1011.93 1012.15 1012.48 1012.92 1013.41 1013.91 1014.37 1014.76 1015.06 1015.29 1015.48 1015.65 1015.85 1016.08 1016.36 1016.66 1016.97 1017.26 1017.49 1017.65 1017.74 1017.78 1017.78 1017.77
1005.43 1005.49 1005.58 1005.69 1005.82 1006.01 1006.30 1006.70 1007.24 1007.90 1008.63 1009.36 1010.01 1010.55 1010.93 1011.15 1011.24 1011.28 1011.32 1011.43 1011.65 1011.97 1012.40 1012.89 1013.39 1013.84 1014.23 1014.53 1014.77 1014.96 1015.15 1015.38 1015.65 1015.97 1016.33 1016.69 1017.03 1017.31 1017.52 1017.64 1017.70 1017.71 1017.70
1004.89 1004.83 1004.83 1004.87 1004.96 1005.11 1005.36 1005.76 1006.30 1006.97 1007.72 1008.48 1009.19 1009.78 1010.21 1010.48 1010.63 1010.70 1010.77 1010.89 1011.10 1011.42 1011.84 1012.31 1012.79 1013.24 1013.62 1013.93 1014.18 1014.40 1014.62 1014.88 1015.19 1015.55 1015.95 1016.36 1016.73 1017.04 1017.27 1017.41 1017.48 1017.50 1017.50
1004.58 1004.40 1004.30 1004.26 1004.26 1004.35 1004.55 1004.90 1005.40 1006.04 1006.78 1007.54 1008.27 1008.89 1009.37 1009.69 1009.89 1010.01 1010.12 1010.27 1010.49 1010.82 1011.22 1011.68 1012.15 1012.60 1012.98 1013.30 1013.58 1013.83 1014.09 1014.38 1014.73 1015.13 1015.55 1015.98 1016.36 1016.68 1016.92 1017.07 1017.14 1017.17 1017.18
1004.56 1004.26 1004.05 1003.91 1003.84 1003.84 1003.96 1004.22 1004.64 1005.20 1005.88 1006.60 1007.30 1007.92 1008.42 1008.79 1009.04 1009.22 1009.38 1009.57 1009.82 1010.16 1010.57 1011.02 1011.49 1011.93 1012.33 1012.68 1012.99 1013.28 1013.58 1013.91 1014.29 1014.71 1015.14 1015.56 1015.94 1016.25 1016.48 1016.62 1016.71 1016.75 1016.78
1004.80 1004.41 1004.12 1003.89 1003.72 1003.63 1003.64 1003.78 1004.08 1004.53 1005.10 1005.73 1006.36 1006.94 1007.44 1007.83 1008.12 1008.35 1008.57 1008.81 1009.11 1009.47 1009.89 1010.36 1010.83 1011.29 1011.71 1012.09 1012.43 1012.77 1013.11 1013.47 1013.87 1014.29 1014.72 1015.12 1015.48 1015.76 1015.98 1016.12 1016.21 1016.28 1016.34
1005.26 1004.82 1004.46 1004.16 1003.90 1003.71 1003.61 1003.62 1003.78 1004.08 1004.50 1004.99 1005.52 1006.03 1006.48 1006.87 1007.19 1007.47 1007.74 1008.03 1008.37 1008.77 1009.22 1009.71 1010.20 1010.67 1011.12 1011.53 1011.92 1012.29 1012.67 1013.06 1013.47 1013.88 1014.28 1014.66 1014.98 1015.25 1015.44 1015.59 1015.70 1015.80 1015.92
1005.85 1005.39 1005.00 1004.64 1004.31 1004.03 1003.81 1003.69 1003.70 1003.83 1004.09 1004.43 1004.82 1005.23 1005.62 1005.98 1006.30 1006.61 1006.93 1007.27 1007.66 1008.10 1008.58 1009.09 1009.60 1010.10 1010.57 1011.02 1011.44 1011.84 1012.25 1012.65 1013.06 1013.46 1013.84 1014.18 1014.48 1014.72 1014.91 1015.07 1015.21 1015.36 1015.53
1006.45 1006.01 1005.60 1005.20 1004.82 1004.45 1004.13 1003.89 1003.75 1003.73 1003.82 1004.01 1004.26 1004.56 1004.87 1005.18 1005.50 1005.82 1006.17 1006.56 1006.99 1007.47 1007.98 1008.52 1009.05 1009.57 1010.07 1010.54 1010.98 1011.41 1011.83 1012.24 1012.64 1013.03 1013.39 1013.71 1013.98 1014.21 1014.40 1014.58 1014.76 1014.95 1015.18
1006.98 1006.55 1006.12 1005.69 1005.26 1004.82 1004.42 1004.07 1003.81 1003.66 1003.60 1003.65 1003.77 1003.96 1004.19 1004.45 1004.75 1005.08 1005.46 1005.88 1006.36 1006.87 1007.42 1007.98 1008.53 1009.07 1009.59 1010.08 1010.54 1010.99 1011.41 1011.83 1012.23 1012.60 1012.94 1013.24 1013.50 1013.73 1013.93 1014.13 1014.34 1014.58 1014.86
1007.36 1006.91 1006.46 1005.98 1005.49 1005.00 1004.52 1004.09 1003.74 1003.47 1003.31 1003.24 1003.26 1003.36 1003.52 1003.75 1004.03 1004.37 1004.77 1005.23 1005.74 1006.30 1006.88 1007.47 1008.05 1008.61 1009.14 1009.65 1010.12 1010.58 1011.01 1011.43 1011.82 1012.18 1012.51 1012.80 1013.06 1013.28 1013.49 1013.71 1013.95 1014.21 1014.52
1007.53 1007.04 1006.53 1005.99 1005.43 1004.87 1004.33 1003.84 1003.43 1003.09 1002.85 1002.71 1002.66 1002.70 1002.81 1003.01 1003.29 1003.65 1004.08 1004.58 1005.14 1005.74 1006.36 1006.98 1007.59 1008.18 1008.73 1009.25 1009.74 1010.20 1010.64 1011.05 1011.44 1011.80 1012.12 1012.40 1012.65 1012.87 1013.09 1013.30 1013.54 1013.81 1014.12
1007.51 1006.94 1006.33 1005.70 1005.06 1004.44 1003.84 1003.31 1002.85 1002.47 1002.19 1002.01 1001.92 1001.93 1002.03 1002.23 1002.52 1002.90 1003.38 1003.93 1004.54 1005.19 1005.86 1006.54 1007.19 1007.80 1008.38 1008.91 1009.42 1009.88 1010.32 1010.73 1011.12 1011.47 1011.78 1012.05 1012.29 1012.50 1012.69 1012.90 1013.12 1013.36 1013.64
1007.33 1006.65 1005.92 1005.19 1004.46 1003.76 1003.12 1002.55 1002.06 1001.67 1001.38 1001.19 1001.09 1001.10 1001.20 1001.42 1001.74 1002.16 1002.69 1003.30 1003.98 1004.70 1005.43 1006.16 1006.86 1007.51 1008.12 1008.67 1009.19 1009.66 1010.09 1010.50 1010.87 1011.20 1011.49 1011.75 1011.96 1012.15 1012.32 1012.48 1012.66 1012.86 1013.08
1007.08 1006.27 1005.42 1004.58 1003.76 1003.00 1002.31 1001.71 1001.22 1000.83 1000.55 1000.36 1000.28 1000.29 1000.42 1000.67 1001.03 1001.51 1002.09 1002.77 1003.52 1004.31 1005.12 1005.91 1006.66 1007.36 1007.99 1008.57 1009.08 1009.55 1009.97 1010.36 1010.70 1011.01 1011.27 1011.50 1011.69 1011.84 1011.96 1012.08 1012.20 1012.33 1012.48
1006.84 1005.93 1004.98 1004.04 1003.15 1002.34 1001.63 1001.02 1000.53 1000.15 999.88 999.71 999.65 999.69 999.85 1000.13 1000.54 1001.07 1001.71 1002.46 1003.28 1004.13 1005.00 1005.85 1006.65 1007.38 1008.04 1008.62 1009.14 1009.58 1009.98 1010.33 1010.64 1010.90 1011.13 1011.31 1011.46 1011.57 1011.65 1011.71 1011.76 1011.83 1011.90
1006.72 1005.74 1004.73 1003.75 1002.82 1001.99 1001.26 1000.66 1000.18 999.82 999.57 999.43 999.39 999.46 999.64 999.96 1000.40 1000.97 1001.67 1002.46 1003.33 1004.24 1005.16 1006.05 1006.88 1007.63 1008.29 1008.86 1009.35 1009.76 1010.11 1010.41 1010.66 1010.87 1011.05 1011.19 1011.29 1011.36 1011.40 1011.41 1011.41 1011.42 1011.43
1006.80 1005.80 1004.79 1003.81 1002.89 1002.07 1001.36 1000.78 1000.33 999.99 999.77 999.65 999.63 999.72 999.92 1000.26 1000.72 1001.32 1002.04 1002.86 1003.75 1004.69 1005.62 1006.52 1007.35 1008.09 1008.73 1009.27 1009.71 1010.07 1010.35 1010.58 1010.77 1010.92 1011.04 1011.14 1011.20 1011.23 1011.24 1011.22 1011.19 1011.15 1011.11
1007.09 1006.15 1005.19 1004.25 1003.39 1002.61 1001.96 1001.42 1001.01 1000.70 1000.51 1000.41 1000.41 1000.52 1000.73 1001.07 1001.54 1002.14 1002.85 1003.66 1004.54 1005.46 1006.37 1007.24 1008.04 1008.74 1009.33 1009.81 1010.19 1010.47 1010.68 1010.83 1010.95 1011.04 1011.10 1011.15 1011.18 1011.19 1011.18 1011.15 1011.10 1011.04 1010.97
1007.60 1006.76 1005.90 1005.06 1004.27 1003.58 1002.99 1002.52 1002.16 1001.90 1001.74 1001.67 1001.69 1001.80 1002.02 1002.35 1002.81 1003.37 1004.05 1004.82 1005.65 1006.51 1007.36 1008.16 1008.89 1009.52 1010.03 1010.43 1010.72 1010.93 1011.06 1011.14 1011.18 1011.20 1011.22 1011.23 1011.24 1011.24 1011.22 1011.20 1011.15 1011.08 1010.99
1008.29 1007.57 1006.84 1006.11 1005.44 1004.84 1004.34 1003.94 1003.64 1003.43 1003.31 1003.27 1003.32 1003.44 1003.66 1003.97 1004.39 1004.91 1005.52 1006.21 1006.96 1007.72 1008.47 1009.17 1009.80 1010.33 1010.75 1011.06 1011.27 1011.40 1011.45 1011.46 1011.45 1011.42 1011.40 1011.38 1011.38 1011.37 1011.36 1011.34 1011.30 1011.23 1011.14
1009.09 1008.50 1007.89 1007.29 1006.73 1006.24 1005.82 1005.50 1005.27 1005.12 1005.04 1005.04 1005.11 1005.24 1005.45 1005.74 1006.12 1006.57 1007.10 1007.69 1008.32 1008.97 1009.59 1010.17 1010.68 1011.10 1011.43 1011.65 1011.78 1011.84 1011.84 1011.80 1011.74 1011.69 1011.64 1011.60 1011.59 1011.58 1011.57 1011.55 1011.52 1011.45 1011.34
1009.91 1009.45 1008.96 1008.47 1008.01 1007.61 1007.28 1007.03 1006.86 1006.76 1006.73 1006.77 1006.86 1007.01 1007.22 1007.49 1007.81 1008.20 1008.63 1009.11 1009.61 1010.12 1010.61 1011.06 1011.45 1011.77 1012.00 1012.15 1012.23 1012.24 1012.21 1012.14 1012.07 1011.99 1011.93 1011.89 1011.86 1011.85 1011.83 1011.80 1011.75 1011.67 1011.53
1010.71 1010.34 1009.94 1009.54 1009.17 1008.84 1008.58 1008.39 1008.27 1008.23 1008.24 1008.31 1008.43 1008.60 1008.80 1009.04 1009.33 1009.64 1009.98 1010.35 1010.73 1011.10 1011.46 1011.79 1012.07 1012.30 1012.46 1012.57 1012.61 1012.61 1012.57 1012.51 1012.43 1012.36 1012.29 1012.24 1012.20 1012.16 1012.12 1012.07 1011.98 1011.86 1011.68
Thickness
5793 5793 5792 5790 5788 5786 5783 5781 5779 5778 5776 5773 5770 5768 5766 5767 5766 5766 5764 5763 5761 5759 5757 5755 5753 5751 5748 5746 5745 5743 5740 5737 5736 5733 5730 5732 5733 5733 5734 5733 5733 5733 5732
5791 5792 5792 5790 5788 5786 5784 5782 5781 5779 5777 5775 5773 5771 5769 5767 5767 5766 5764 5763 5761 5760 5758 5756 5753 5751 5748 5746 5744 5742 5738 5736 5735 5731 5726 5723 5725 5729 5732 5731 5731 5730 5730
5793 5792 5792 5791 5790 5788 5786 5785 5782 5780 5778 5776 5774 5771 5768 5767 5765 5764 5763 5763 5761 5760 5758 5756 5753 5751 5749 5746 5744 5742 5739 5735 5733 5732 5727 5721 5718 5721 5726 5728 5728 5727 5727
5798 5796 5795 5793 5792 5791 5790 5787 5784 5781 5779 5777 5774 5770 5766 5763 5763 5763 5762 5762 5761 5759 5758 5756 5754 5751 5749 5747 5745 5742 5740 5736 5732 5730 5729 5727 5724 5719 5718 5722 5724 5725 5724
5802 5800 5799 5798 5797 5795 5792 5789 5785 5782 5779 5777 5774 5770 5767 5765 5764 5763 5762 5761 5760 5759 5758 5756 5754 5752 5750 5748 5745 5742 5740 5737 5734 5730 5728 5725 5722 5721 5717 5715 5718 5720 5721
5806 5804 5803 5801 5798 5796 5793 5790 5785 5782 5780 5777 5774 5771 5768 5765 5762 5761 5760 5760 5759 5758 5758 5756 5754 5752 5750 5748 5745 5743 5740 5738 5735 5732 5729 5725 5722 5719 5717 5714 5715 5715 5718
5807 5805 5803 5800 5798 5795 5793 5790 5786 5782 5780 5777 5774 5772 5769 5766 5763 5761 5760 5758 5757 5757 5757 5756 5754 5752 5750 5748 5745 5742 5740 5738 5735 5732 5730 5727 5725 5723 5719 5716 5714 5712 5714
5807 5806 5805 5802 5799 5797 5793 5790 5786 5782 5779 5776 5773 5771 5769 5766 5764 5762 5760 5758 5758 5757 5757 5755 5754 5752 5749 5747 5744 5742 5739 5737 5734 5732 5730 5728 5727 5724 5722 5718 5713 5710 5710
5806 5805 5804 5802 5799 5796 5793 5790 5786 5781 5779 5776 5773 5770 5767 5765 5763 5761 5760 5759 5758 5757 5756 5754 5752 5750 5748 5746 5743 5740 5738 5735 5733 5731 5730 5728 5727 5725 5723 5720 5717 5712 5707
5804 5803 5802 5801 5799 5796 5793 5790 5786 5782 5778 5775 5772 5769 5766 5764 5762 5761 5759 5758 5757 5756 5754 5752 5750 5748 5746 5744 5741 5738 5737 5734 5732 5731 5728 5727 5726 5724 5722 5720 5717 5714 5710
5802 5801 5800 5798 5797 5794 5791 5787 5784 5779 5776 5773 5770 5768 5765 5763 5761 5760 5758 5757 5755 5753 5751 5750 5748 5746 5743 5741 5738 5736 5735 5733 5731 5729 5727 5725 5724 5721 5720 5717 5715 5712 5709
5799 5798 5796 5794 5792 5789 5787 5784 5781 5778 5774 5772 5768 5766 5763 5761 5759 5757 5756 5754 5752 5751 5749 5747 5744 5743 5741 5739 5736 5734 5732 5730 5727 5725 5724 5722 5721 5719 5717 5715 5712 5710 5707
5793 5792 5791 5789 5787 5785 5783 5781 5779 5776 5773 5770 5767 5763 5761 5759 5756 5755 5753 5751 5749 5747 5745 5743 5741 5740 5738 5736 5734 5732 5729 5727 5725 5723 5721 5719 5718 5716 5714 5712 5710 5707 5705
5786 5785 5784 5783 5783 5781 5779 5777 5774 5773 5770 5766 5763 5760 5758 5756 5755 5753 5751 5749 5746 5744 5741 5739 5738 5736 5734 5733 5731 5729 5726 5724 5722 5721 5719 5717 5715 5713 5711 5709 5706 5704 5700
5780 5779 5778 5778 5777 5776 5774 5772 5770 5768 5766 5762 5759 5757 5755 5754 5751 5749 5747 5745 5742 5741 5738 5735 5733 5732 5731 5729 5727 5725 5723 5720 5718 5717 5715 5714 5712 5710 5708 5706 5702 5700 5696
5775 5775 5774 5773 5772 5771 5769 5767 5765 5763 5761 5758 5755 5753 5752 5750 5748 5746 5743 5740 5738 5736 5734 5731 5729 5728 5727 5725 5723 5720 5718 5716 5713 5711 5710 5709 5707 5705 5703 5701 5699 5696 5692
5770 5769 5769 5768 5767 5766 5764 5761 5760 5758 5755 5752 5751 5749 5747 5745 5743 5741 5738 5736 5733 5731 5728 5726 5725 5723 5722 5720 5718 5716 5713 5710 5708 5706 5704 5704 5703 5700 5698 5696 5693 5690 5688
5765 5765 5764 5764 5763 5761 5760 5758 5755 5752 5750 5747 5745 5743 5741 5739 5737 5735 5733 5730 5728 5726 5723 5721 5719 5718 5717 5715 5713 5710 5708 5705 5703 5701 5699 5697 5695 5694 5691 5688 5686 5685 5683
5763 5761 5761 5760 5758 5755 5754 5752 5749 5746 5744 5741 5739 5738 5736 5734 5731 5729 5727 5725 5723 5720 5718 5716 5714 5712 5711 5710 5707 5704 5702 5699 5697 5695 5693 5691 5689 5687 5684 5681 5679 5678 5677
5758 5756 5755 5753 5751 5750 5748 5745 5742 5739 5737 5735 5734 5732 5730 5727 5725 5723 5721 5720 5717 5715 5712 5710 5709 5707 5705 5704 5701 5698 5696 5693 5691 5689 5687 5685 5683 5680 5677 5675 5673 5670 5670
5751 5751 5748 5746 5745 5743 5741 5738 5735 5733 5732 5730 5727 5725 5723 5721 5719 5717 5716 5713 5711 5708 5706 5704 5702 5701 5699 5697 5695 5692 5690 5688 5685 5683 5681 5679 5676 5673 5670 5668 5667 5665 5663
5743 5742 5740 5738 5737 5736 5734 5730 5728 5728 5726 5724 5720 5718 5716 5714 5713 5710 5708 5707 5704 5700 5698 5696 5695 5694 5692 5690 5688 5686 5684 5682 5679 5677 5675 5673 5670 5667 5664 5661 5660 5658 5655
5734 5733 5731 5729 5728 5727 5726 5723 5722 5720 5718 5715 5712 5709 5707 5705 5704 5702 5700 5698 5696 5693 5691 5689 5687 5686 5685 5684 5682 5680 5678 5675 5672 5671 5669 5666 5663 5660 5657 5655 5652 5650 5648
5726 5725 5723 5720 5719 5719 5718 5716 5714 5712 5709 5706 5702 5700 5698 5696 5695 5693 5692 5690 5688 5686 5684 5682 5680 5679 5677 5676 5675 5673 5671 5668 5666 5664 5662 5659 5656 5652 5650 5648 5645 5643 5641
5717 5716 5715 5713 5712 5711 5709 5708 5706 5703 5699 5695 5692 5690 5688 5687 5685 5684 5683 5682 5681 5679 5676 5675 5674 5672 5670 5671 5669 5666 5664 5662 5660 5657 5654 5650 5647 5645 5643 5641 5638 5636 5633
5707 5706 5706 5705 5704 5702 5700 5698 5697 5694 5691 5687 5683 5681 5679 5678 5677 5676 5674 5673 5673 5672 5670 5668 5666 5665 5663 5662 5661 5659 5658 5655 5652 5648 5645 5643 5640 5638 5636 5634 5632 5629 5627